Location: Absher
(46.5583°N, 107.9840°W)
Time: 19:31:26
(UTC+00:00)

QB50P2 - Pass Details

Date: 06 April 2023
Orbit: 581 x 596 km, 98.0° (Epoch: 31 May)

Event Time Altitude Azimuth Distance (km) Brightness Sun altitude
Rises 10:07:10 0° 1° (N) 2,829 ? -24.6°
Reaches altitude 10° 10:09:42 10° 346° (NNW) 1,920 ? -24.3°
Enters shadow 10:11:42 19° 320° (NW) 1,406 ? -24.1°
